Location: ??
(31.9467°N, 34.8903°E)
Time: 01:43:57
(UTC+00:00)

Meteor 2-15 - Pass Details

Date: 29 October 2020
Orbit: 935 x 956 km, 82.5° (Epoch: 25 November)

Event Time Altitude Azimuth Distance (km) Brightness Sun altitude
Rises 15:56:35 0° 185° (S) 3,618 7.7 -14.0°
Reaches altitude 10° 15:59:04 10° 186° (S) 2,676 7.0 -14.5°
Maximum altitude 16:05:13 87° 276° (W) 960 4.5 -15.8°
Drops below altitude 10° 16:11:22 10° 6° (N) 2,682 6.7 -17.1°
Sets 16:13:52 0° 6° (N) 3,628 7.4 -17.7°
